Route Details

Aircraft Information
Group: North America Fleet
Types: B738, B752, B762, B763
Route Data
Distance: 382nm
Duration: 1h 39m
Origin METAR: KBNA 010628Z 35008KT 7SM OVC009 M01/M03 A3030 RMK AO2 FZRAB13E27 P0000 I1000 T10111033 $
Dest. METAR: KRFD 010554Z 18003KT 10SM CLR M19/M22 A3036 RMK AO2 SLP298 4/007 T11891222 11150 21189 411281239 58004
Freight Data
(for Feb 1, 2023)
Load Factor:
27%
Manifested Cargo: 18,363lbs
Financial History
Total Freight: 302,169lbs
Average Load: 0lbs/flt
Fuel Used: 62,074lbs
Avg. Fuel Used: 0lbs/flt
Fuel Expense: $49,850
Avg. Fuel Expense: $0
Avg. Fuel Cost: $0/lbs
Total Gross Income: $417,932
Pilot Pay: $1,233
Total Expenses: $47,159
Total Revenue: $319,096
Average Revenue: $0

Capitol Logistics 471




KBNA
Nashville International Airport
Nashville, Tennessee
KRFD
Chicago/Rockford International Airport
Rockford, Illinois

Activity Log

Date Flight Route Aircraft Duration
10/19/2021 CPX406 GDOGG3 FAPER FAPER PENTO OCTOE JOT BULLZ B752 1h 32m
09/04/2020 CPX406 HGGRD PXV J73 GUIDO JOT B738 1h 18m
11/14/2019 CPX406 N0406F350 HGGRD3 TINGS J29 PXV/N0420F340 PNT/N0330A160 V9 SMARS V128 RFD B738 1h 32m
09/25/2019 CPX406 N0451F410 HGGRD3 TINGS J29 PXV/N0453F400 PNT V9 SMARS V128 RFD B752 1h 15m
06/23/2019 CPX406 HGGRD PXV J73 GUIDO JOT B752 1h 07m
06/06/2019 CPX406 HGGRD PXV J73 GUIDO JOT B752 1h 32m
02/19/2019 CPX406 HGGRD PXV J73 GUIDO JOT B752 1h 16m